Location: Cheyres
(46.8153°N, 6.7877°E)
Time: 08:24:48
(UTC+00:00)

Cosmos 990 Rocket - Pass Details

Date: 24 September 2021
Orbit: 746 x 769 km, 74.0° (Epoch: 21 October)

Event Time Altitude Azimuth Distance (km) Brightness Sun altitude
Exits shadow 21:37:50 22° 323° (NW) 1,611 6.2 -38.4°
Drops below altitude 10° 21:41:01 10° 359° (N) 2,296 7.0 -38.8°
Sets 21:43:52 0° 14° (NNE) 3,230 7.7 -39.0°
